| time (UTC) | temp F | wind direction | speed knots | gust knots | rain 1hr in | rain 24hr in | rain mn in | humidity % | barometer mb |
| 20260507104600 | 72 | 44 | 4.3 | 12.2 | 0.00 | 0.00 | 0.00 | 63 | 1015.7 |
| 20260507103041 | 71 | 229 | 5.2 | 9.6 | 0.00 | 0.00 | 0.00 | 65 | 1015.8 |
| 20260507101541 | 71 | 252 | 3.5 | 9.6 | 0.00 | 0.00 | 0.00 | 65 | 1015.8 |
| 20260507100024 | 71 | 345 | 3.5 | 10.4 | 0.00 | 0.00 | 0.00 | 65 | 1016.0 |
| 20260507094519 | 70 | 229 | 4.3 | 7.8 | 0.00 | 0.00 | 0.00 | 66 | 1016.0 |
| 20260507093002 | 70 | 304 | 3.5 | 8.7 | 0.00 | 0.00 | 0.00 | 64 | 1016.3 |
| 20260507091559 | 70 | 156 | 2.6 | 8.7 | 0.00 | 0.00 | 0.00 | 65 | 1016.3 |
| 20260507090040 | 69 | 280 | 3.5 | 8.7 | 0.00 | 0.00 | 0.00 | 63 | 1016.4 |
| 20260507084539 | 70 | 67 | 2.6 | 7.0 | 0.00 | 0.00 | 0.00 | 64 | 1016.6 |
| 20260507083019 | 69 | 181 | 2.6 | 8.7 | 0.00 | 0.00 | 0.00 | 65 | 1016.6 |
| 20260507081519 | 69 | 17 | 4.3 | 9.6 | 0.00 | 0.00 | 0.00 | 65 | 1016.7 |
| 20260507074607 | 70 | 235 | 2.6 | 7.0 | 0.00 | 0.00 | 0.00 | 65 | 1016.9 |
| 20260507073039 | 69 | 268 | 3.5 | 6.1 | 0.00 | 0.00 | 0.00 | 66 | 1016.7 |
| 20260507071534 | 69 | 313 | 3.5 | 6.1 | 0.00 | 0.00 | 0.00 | 67 | 1016.7 |
| 20260507070013 | 69 | 330 | 1.7 | 6.1 | 0.00 | 0.00 | 0.00 | 68 | 1016.9 |
| 20260507064509 | 69 | 279 | 0.9 | 4.3 | 0.00 | 0.00 | 0.00 | 70 | 1017.1 |
| 20260507063056 | 68 | 360 | 1.7 | 5.2 | 0.00 | 0.00 | 0.00 | 69 | 1017.1 |
| 20260507061548 | 67 | 67 | 0.9 | 4.3 | 0.00 | 0.00 | 0.00 | 72 | 1017.0 |
| 20260507060037 | 65 | 60 | 0.9 | 3.5 | 0.00 | 0.00 | 0.00 | 74 | 1017.2 |
| 20260507054520 | 63 | 66 | 0.9 | 4.3 | 0.00 | 0.00 | 0.00 | 78 | 1017.3 |
| 20260507053117 | 61 | 53 | 0.9 | 5.2 | 0.00 | 0.00 | 0.00 | 81 | 1017.2 |
| 20260507051600 | 59 | 355 | 0.9 | 3.5 | 0.00 | 0.00 | 0.00 | 83 | 1017.3 |
| 20260507050055 | 58 | 360 | 0.0 | 1.7 | 0.00 | 0.00 | 0.00 | 84 | 1017.2 |
| 20260507044537 | 56 | 360 | 0.0 | 0.0 | 0.00 | 0.00 | 0.00 | 84 | 1017.2 |
| 20260507043037 | 56 | 360 | 0.0 | 1.7 | 0.00 | 0.00 | 0.00 | 84 | 1017.1 |
| 20260507041516 | 55 | 360 | 0.9 | 2.6 | 0.00 | 0.00 | 0.00 | 83 | 1017.0 |
| 20260507040017 | 54 | 360 | 0.0 | 0.0 | 0.00 | 0.00 | 0.00 | 83 | 1016.8 |
| 20260507034554 | 54 | 360 | 0.0 | 1.7 | 0.00 | 0.00 | 0.00 | 82 | 1016.8 |
| 20260507033051 | 54 | 360 | 0.0 | 1.7 | 0.00 | 0.00 | 0.00 | 82 | 1016.7 |
| 20260507031531 | 54 | 360 | 0.0 | 0.0 | 0.00 | 0.00 | 0.00 | 82 | 1016.5 |
| 20260507030030 | 54 | 360 | 0.0 | 0.0 | 0.00 | 0.00 | 0.00 | 81 | 1016.4 |
| 20260507024509 | 54 | 360 | 0.0 | 0.0 | 0.00 | 0.00 | 0.00 | 81 | 1016.3 |
| 20260507023009 | 54 | 360 | 0.0 | 0.0 | 0.00 | 0.00 | 0.00 | 81 | 1016.0 |
| 20260507021550 | 54 | 360 | 0.0 | 0.0 | 0.00 | 0.00 | 0.00 | 80 | 1016.1 |
| 20260507020051 | 54 | 360 | 0.0 | 0.0 | 0.00 | 0.00 | 0.00 | 80 | 1016.1 |
| 20260507014529 | 55 | 360 | 0.0 | 0.0 | 0.00 | 0.00 | 0.00 | 80 | 1016.1 |
| 20260507013044 | 55 | 360 | 0.0 | 0.0 | 0.00 | 0.00 | 0.00 | 80 | 1016.0 |
| 20260507011510 | 56 | 360 | 0.0 | 0.0 | 0.00 | 0.00 | 0.00 | 79 | 1016.1 |
| 20260507010008 | 56 | 360 | 0.0 | 0.0 | 0.00 | 0.00 | 0.00 | 79 | 1016.0 |
| 20260507004550 | 56 | 360 | 0.0 | 0.0 | 0.00 | 0.00 | 0.00 | 79 | 1016.0 |
| 20260507003047 | 56 | 360 | 0.0 | 0.0 | 0.00 | 0.00 | 0.00 | 79 | 1016.0 |
| 20260507001532 | 57 | 360 | 0.0 | 0.9 | 0.00 | 0.00 | 0.00 | 79 | 1016.1 |
| 20260507000028 | 57 | 360 | 0.0 | 0.9 | 0.00 | 0.00 | 0.00 | 79 | 1016.1 |
| 20260506234515 | 57 | 360 | 0.0 | 0.0 | 0.00 | 0.00 | 0.00 | 78 | 1016.2 |
| 20260506233008 | 57 | 360 | 0.0 | 0.0 | 0.00 | 0.00 | 0.00 | 78 | 1016.2 |
| 20260506231549 | 58 | 360 | 0.0 | 0.0 | 0.00 | 0.00 | 0.00 | 77 | 1016.2 |
| 20260506230048 | 58 | 360 | 0.0 | 0.0 | 0.00 | 0.00 | 0.00 | 77 | 1016.2 |
| 20260506224528 | 58 | 360 | 0.0 | 0.0 | 0.00 | 0.00 | 0.00 | 77 | 1016.3 |
| 20260506223026 | 58 | 360 | 0.0 | 1.7 | 0.00 | 0.00 | 0.00 | 76 | 1016.4 |
| 20260506221508 | 59 | 360 | 0.9 | 1.7 | 0.00 | 0.00 | 0.00 | 75 | 1016.5 |
| 20260506220015 | 59 | 360 | 0.9 | 1.7 | 0.00 | 0.00 | 0.00 | 75 | 1016.5 |
| 20260506214550 | 60 | 360 | 0.0 | 1.7 | 0.00 | 0.00 | 0.00 | 75 | 1016.6 |
| 20260506213045 | 60 | 360 | 0.0 | 1.7 | 0.00 | 0.00 | 0.00 | 75 | 1016.5 |
| 20260506211529 | 60 | 360 | 0.0 | 2.6 | 0.00 | 0.00 | 0.00 | 75 | 1016.6 |
| 20260506210033 | 60 | 360 | 0.0 | 1.7 | 0.00 | 0.00 | 0.00 | 75 | 1016.5 |
| 20260506204507 | 61 | 360 | 0.9 | 3.5 | 0.00 | 0.00 | 0.00 | 74 | 1016.7 |
| 20260506203006 | 61 | 346 | 0.9 | 1.7 | 0.00 | 0.00 | 0.00 | 73 | 1016.7 |
| 20260506201548 | 61 | 346 | 0.0 | 1.7 | 0.00 | 0.00 | 0.00 | 73 | 1016.7 |
| 20260506200049 | 61 | 346 | 0.0 | 2.6 | 0.00 | 0.00 | 0.00 | 72 | 1016.7 |
| 20260506194530 | 61 | 346 | 0.9 | 2.6 | 0.00 | 0.00 | 0.00 | 72 | 1016.8 |
| 20260506193030 | 62 | 338 | 0.9 | 2.6 | 0.00 | 0.00 | 0.00 | 70 | 1016.7 |
| 20260506191512 | 62 | 338 | 0.9 | 2.6 | 0.00 | 0.00 | 0.00 | 69 | 1016.8 |
| 20260506190011 | 62 | 337 | 0.9 | 2.6 | 0.00 | 0.00 | 0.00 | 68 | 1016.8 |
| 20260506184552 | 63 | 299 | 0.0 | 0.0 | 0.00 | 0.00 | 0.00 | 68 | 1016.7 |
| 20260506183050 | 63 | 299 | 0.0 | 0.0 | 0.00 | 0.00 | 0.00 | 68 | 1016.5 |
| 20260506181534 | 63 | 299 | 0.0 | 0.9 | 0.00 | 0.00 | 0.00 | 67 | 1016.4 |
| 20260506180036 | 63 | 299 | 0.0 | 1.7 | 0.00 | 0.00 | 0.00 | 67 | 1016.3 |
| 20260506174514 | 64 | 304 | 0.0 | 1.7 | 0.00 | 0.00 | 0.00 | 66 | 1016.3 |
| 20260506173020 | 64 | 304 | 0.9 | 3.5 | 0.00 | 0.00 | 0.00 | 66 | 1016.1 |
| 20260506171603 | 64 | 306 | 0.9 | 3.5 | 0.00 | 0.00 | 0.00 | 65 | 1016.1 |
| 20260506164550 | 64 | 264 | 0.9 | 2.6 | 0.00 | 0.00 | 0.00 | 64 | 1015.7 |
| 20260506163040 | 65 | 189 | 0.9 | 3.5 | 0.00 | 0.00 | 0.00 | 64 | 1015.7 |
| 20260506161519 | 65 | 224 | 1.7 | 3.5 | 0.00 | 0.00 | 0.00 | 64 | 1015.5 |
| 20260506160019 | 65 | 323 | 0.9 | 4.3 | 0.00 | 0.00 | 0.00 | 64 | 1015.5 |
| 20260506154600 | 66 | 321 | 1.7 | 7.0 | 0.00 | 0.00 | 0.00 | 64 | 1015.5 |
| 20260506153102 | 66 | 149 | 1.7 | 5.2 | 0.00 | 0.00 | 0.00 | 63 | 1015.3 |
| 20260506151542 | 67 | 24 | 2.6 | 6.1 | 0.00 | 0.00 | 0.00 | 61 | 1015.3 |
| 20260506150042 | 67 | 19 | 0.9 | 5.2 | 0.00 | 0.00 | 0.00 | 61 | 1015.3 |
| 20260506144530 | 68 | 289 | 0.9 | 3.5 | 0.00 | 0.00 | 0.00 | 59 | 1015.2 |
| 20260506143032 | 68 | 47 | 1.7 | 6.1 | 0.00 | 0.00 | 0.00 | 60 | 1015.3 |
| 20260506141505 | 68 | 300 | 1.7 | 8.7 | 0.00 | 0.00 | 0.00 | 58 | 1015.2 |
| 20260506140005 | 68 | 309 | 1.7 | 5.2 | 0.00 | 0.00 | 0.00 | 58 | 1015.2 |
| 20260506134547 | 69 | 275 | 1.7 | 5.2 | 0.00 | 0.00 | 0.00 | 58 | 1015.3 |
| 20260506133047 | 69 | 254 | 0.9 | 5.2 | 0.00 | 0.00 | 0.00 | 57 | 1015.3 |
| 20260506131534 | 69 | 109 | 2.6 | 7.0 | 0.00 | 0.00 | 0.00 | 58 | 1015.5 |
| 20260506130029 | 69 | 253 | 2.6 | 6.1 | 0.00 | 0.00 | 0.00 | 59 | 1015.5 |
| 20260506124510 | 69 | 300 | 2.6 | 7.0 | 0.00 | 0.00 | 0.00 | 59 | 1015.6 |
| 20260506123011 | 69 | 294 | 2.6 | 7.0 | 0.00 | 0.00 | 0.00 | 59 | 1015.8 |
| 20260506121601 | 69 | 21 | 2.6 | 7.8 | 0.00 | 0.00 | 0.00 | 59 | 1015.7 |
| 20260506120116 | 69 | 130 | 2.6 | 6.1 | 0.00 | 0.00 | 0.00 | 58 | 1015.8 |
| 20260506114533 | 70 | 286 | 2.6 | 6.1 | 0.00 | 0.00 | 0.00 | 57 | 1015.9 |
| 20260506113035 | 71 | 350 | 2.6 | 7.8 | 0.00 | 0.00 | 0.00 | 56 | 1016.0 |
| 20260506111513 | 70 | 279 | 2.6 | 7.0 | 0.00 | 0.00 | 0.00 | 58 | 1016.0 |
| 20260506110011 | 69 | 268 | 1.7 | 5.2 | 0.00 | 0.00 | 0.00 | 58 | 1016.0 |